User: anonymous   Login
Location: Unspecified
(0.0000°N, 0.0000°E)
Time: 22:04:17
(UTC+00:00)
Language:

Oscar 16 - Orbit

View from above orbital plane
View from above orbital plane
View from above satellite
View from above satellite

Ground track
Ground track

The orbit data is extracted from the following two-line orbital elements,

1 20439U 90005D   18343.92338122 +.00000001 +00000-0 +16863-4 0  9990
2 20439 098.6692 286.4125 0011139 014.5812 029.3108 14.32741101508587
Epoch (UTC): 09 December 2018 22:09:40
Eccentricity: 0.0011139
inclination: 98.6692°
perigee height: 774 km
apogee height: 790 km
right ascension of ascending node: 286.4125°
argument of perigee: 14.5812°
revolutions per day: 14.32741101
mean anomaly at epoch: 29.3108°
orbit number at epoch: 50858

The dashed part of the orbit path shows where the satellite is in the earth's shadow,  

DLR